Location: Armstrong
(40.9123°N, 82.0110°W)
Time: 03:46:10
(UTC+00:00)

Okean-O - Pass Details

Date: 29 October 2020
Orbit: 638 x 641 km, 98.2° (Epoch: 26 November)

Event Time Altitude Azimuth Distance (km) Brightness Sun altitude
Rises 22:51:45 0° 126° (SE) 2,937 5.6 -5.3°
Reaches altitude 10° 22:54:32 10° 107° (ESE) 2,032 4.7 -5.8°
Maximum altitude 22:57:30 18° 65° (ENE) 1,578 4.0 -6.4°
Drops below altitude 10° 23:00:28 10° 23° (NNE) 2,041 4.9 -6.9°
Sets 23:03:15 0° 4° (N) 2,954 5.9 -7.5°
